DELTA 1 DEB, 29186

Orbit data source: Space-Track

DELTA 1 DEB, 29186 is space debris in LEO originally from a launch on Thu, 11 Jan 1968 UTC launched from the Air Force Western Test Range (AFWTR). Debris objects in space refer to the collection of defunct objects orbiting the Earth. Examples of debris include non-operational satellites, rocket bodies, and fragments generated from explosions, collisions, or faulty payload assembly.

Loading next visibility...
Identifier
29186, 1968-002K
Orbit
LEO
Country
Flag of USUS
Related business
Manufacturer
Unknown
Mission
Spacecraft
Bus & Motor
Unknown
Mass
Unknown
Launch date (UTC)
1968-01-11 (58 years ago)
Launch vehicle
Unknown
Launch site
Air Force Western Test Range (AFWTR)
Object type
Payload
Rocket body
Debris
Shape & HBR
Unknown shape, 0.1 m
Radar Cross Section
Small (<0.1 m²)

Expand to show TLE details & history
Last TLE update: 2 weeks ago

TLE from 2 weeks ago
0 DELTA 1 DEB
1 29186U 68002K   25298.01764104  .00000433  00000-0  15081-2 0  9998
2 29186 105.7984  16.0087 0309690 187.5447 348.0156 12.92942193988090
Epoch: 2025-10-25T00:25Z
TLE epoch observation values (Epoch: 2025-10-25T00:25:24.185Z)
Latitude
4.93188°
Longitude
157.39548°
Altitude
1,059.815 km
Speed
7.432 km/s
True Right ascension
13h 09m 36s
True Declination
4° 54' 13"
Sunlit
Object was in daylight at epoch
Visualization orbit readout
Latitude
Unknown
Longitude
Unknown
Altitude
Unknown
Speed
Unknown
Apparent Right ascension
Unknown
Apparent Declination
Unknown
Sunlit
N/A
Visualization observer readout
Local Sidereal Time
13:36:28
Azimuth
Unknown
Elevation
Unknown
Doppler factor
Unknown
Orbital elements
Apogee altitude
1,525.039 km
Perigee altitude
1,050.236 km
Semi-major axis
7,665.775 km
Eccentricity
0.03097
Inclination
105.7984°
RAAN
16.0087°
Arg. of periapsis
187.5447°
True anomaly
347.24978°
Mean anomaly
348.0156°
Eccentric anomaly
347.63565°
Mean motion
3.23377 °/min
Orbital period
111.33 mins
BSTAR
0.0015081
Loading maneuver chart data...
Computing Atmospheric mass density...
Loading historical data...
Loading historical data...
Loading historical data...
Loading historical data...
Loading historical data...
Loading historical data...
Loading historical data...

Documentation

Showing up to 5 results
|